This is the latest recevied weather packets stored in our database for station/object OK1LPD-5. If no packets are shown the sender has not sent any weather packets the latest 10 day(s).
| Time | Temp. | Humidity | Pressure | Rain* | Wind** | Luminosity | Snow |
|---|---|---|---|---|---|---|---|
| 1777093209 | 1.11° C | 99% | 1016.1 hPa | 0 mm | - | - | - |
| 1777092611 | 0.56° C | 99% | 1016.2 hPa | 0 mm | - | - | - |
| 1777092010 | 0.56° C | 99% | 1016 hPa | 0 mm | - | - | - |
| 1777091409 | 0.56° C | 99% | 1016 hPa | 0 mm | - | - | - |
| 1777090812 | 0° C | 99% | 1016 hPa | 0 mm | - | - | - |
| 1777090208 | 0° C | 99% | 1016 hPa | 0 mm | - | - | - |
| 1777089609 | 0° C | 99% | 1016 hPa | 0 mm | - | - | - |
| 1777089009 | 0° C | 99% | 1016 hPa | 0 mm | - | - | - |
| 1777088409 | 0.56° C | 99% | 1015.8 hPa | 0 mm | - | - | - |
| 1777087808 | 0.56° C | 99% | 1015.9 hPa | 0 mm | - | - | - |
| 1777087209 | 0.56° C | 99% | 1015.8 hPa | 0 mm | - | - | - |
| 1777086609 | 0.56° C | 99% | 1015.9 hPa | 0 mm | - | - | - |
| 1777086010 | 0.56° C | 99% | 1015.7 hPa | 0 mm | - | - | - |
| 1777085409 | 1.11° C | 99% | 1015.8 hPa | 0 mm | - | - | - |
| 1777084812 | 1.11° C | 99% | 1015.8 hPa | 0 mm | - | - | - |
| 1777084209 | 1.11° C | 99% | 1015.7 hPa | 0 mm | - | - | - |
| 1777083611 | 1.11° C | 99% | 1015.8 hPa | 0 mm | - | - | - |
| 1777083011 | 1.67° C | 99% | 1015.8 hPa | 0 mm | - | - | - |
| 1777082409 | 1.67° C | 99% | 1016 hPa | 0 mm | - | - | - |
| 1777081811 | 1.67° C | 99% | 1016 hPa | 0 mm | - | - | - |
| 1777081211 | 1.67° C | 99% | 1015.9 hPa | 0 mm | - | - | - |
| 1777080608 | 1.67° C | 99% | 1015.9 hPa | 0 mm | - | - | - |
| 1777080011 | 2.22° C | 99% | 1015.9 hPa | 0 mm | - | - | - |
| 1777079412 | 2.22° C | 99% | 1015.9 hPa | 0 mm | - | - | - |
| 1777078810 | 2.22° C | 99% | 1015.7 hPa | 0 mm | - | - | - |
* Rain latest hour (hover to see other rain measurements)
** Current wind speed in m/s (hover to see current wind gust speed)